Temperature
12 13 14 13 13 14 14 14 14 14 15 17 17 17 18 19 19 18 17 16 16 15 14 13 12 12 11 11 11 11 11 11 10 10 10 10 10 10 10 9 9 9 9 9
11 13 14 13 14 14 14 14 15 15 15 17 18 18 18 19 19 18 17 17 16 15 15 14 13 12 12 12 11 11 11 11 10 10 10 10 9 9 9 9 9 9 9 8
9 11 12 11 13 13 14 14 14 14 15 17 17 17 17 19 19 18 18 17 17 16 15 14 14 13 12 12 12 11 11 11 10 10 9 9 9 9 9 9 8 8 8 8
8 10 9 11 14 14 14 14 15 15 16 16 17 18 19 19 18 18 18 17 17 16 16 15 14 13 12 12 11 11 11 10 10 9 9 9 9 8 8 8 8 8 8 7
7 8 9 12 13 14 14 14 15 15 15 16 17 17 17 18 18 18 18 17 17 16 16 15 14 13 13 12 11 11 11 10 10 10 9 9 9 8 8 8 8 7 7 7
7 7 8 12 14 14 14 13 15 15 15 15 15 14 14 17 17 17 17 17 16 16 16 15 14 14 13 12 11 11 11 10 10 9 9 9 9 8 8 7 7 7 6 6
6 7 9 12 13 13 12 12 14 15 15 15 14 15 16 17 17 16 16 16 16 15 15 14 14 13 12 12 11 11 10 9 9 9 8 8 8 7 7 7 6 6 6 5
7 7 8 12 12 12 12 14 15 15 16 15 15 15 16 16 16 15 15 15 15 14 14 13 13 13 12 11 11 10 9 9 8 8 7 7 7 7 6 6 5 5 5 4
7 9 11 12 12 13 14 14 14 15 15 15 15 15 15 15 15 14 14 14 14 13 13 12 12 12 12 11 10 9 9 8 8 7 7 6 6 6 5 5 5 4 4 4
8 9 10 11 12 13 13 13 13 14 14 14 14 14 14 14 14 14 13 13 13 12 12 12 11 11 11 10 10 9 8 8 7 6 6 5 5 5 5 4 4 4 3 3
8 9 10 11 11 12 12 12 13 13 13 14 14 13 13 13 13 13 12 12 12 12 12 11 11 10 10 9 9 8 8 7 6 6 5 5 4 4 4 4 4 4 3 3
8 9 9 10 11 12 12 11 12 12 12 13 13 13 13 12 12 12 12 12 11 11 11 10 10 9 9 8 8 8 7 6 6 5 5 4 4 3 3 3 3 2 2 2
9 10 11 11 11 11 11 11 11 12 12 12 12 12 12 12 12 12 11 11 11 10 10 10 9 9 8 8 7 7 7 6 6 5 5 4 4 3 3 2 2 1 1 1
9 9 10 11 11 11 11 11 10 11 11 11 11 11 11 11 11 11 11 10 10 10 9 9 9 8 7 7 7 6 6 5 5 5 4 4 3 2 2 2 1 1 0 0
8 9 10 10 10 10 10 10 10 10 10 10 10 10 11 11 10 10 10 9 9 9 8 8 8 7 7 6 6 6 5 5 4 4 3 3 2 2 1 1 0 -0 -0 -1
8 8 9 9 9 9 9 9 9 9 9 9 9 9 10 10 9 9 9 8 8 8 8 7 7 7 6 6 5 5 4 4 4 3 3 2 1 1 0 -0 -1 -1 -1 -2
7 7 7 8 8 8 9 9 9 9 8 8 8 8 8 8 8 8 7 7 7 7 7 7 6 6 5 5 5 4 4 3 3 2 2 1 1 0 -0 -1 -1 -2 -2 -3
7 7 8 8 8 8 7 8 8 8 8 8 7 7 7 7 7 7 6 6 6 6 5 5 5 5 4 4 4 3 3 2 2 1 1 0 -0 -1 -1 -2 -2 -3 -3 -3
6 6 7 7 7 7 7 7 7 7 7 7 7 7 6 6 6 5 5 5 5 5 4 4 4 4 4 3 3 2 2 2 1 1 0 -1 -1 -2 -2 -3 -3 -3 -4 -4
5 5 6 6 6 6 6 6 6 6 6 6 6 5 5 4 4 4 4 4 4 4 3 3 3 3 3 2 2 1 1 1 0 -0 -1 -2 -2 -3 -3 -3 -4 -4 -5 -5
4 4 4 5 5 5 5 5 5 5 4 4 4 4 3 3 3 3 3 3 3 2 2 2 2 2 2 1 1 0 0 -0 -1 -1 -2 -3 -3 -4 -4 -4 -5 -5 -6 -6
2 3 3 3 3 3 3 3 3 3 3 3 3 2 2 2 2 2 2 2 2 1 1 1 1 1 1 0 -0 -1 -1 -1 -2 -2 -3 -3 -4 -4 -5 -5 -6 -6 -6 -7
0 1 1 1 1 1 1 1 1 1 1 1 1 1 1 1 1 1 1 1 1 0 0 0 0 -0 -1 -1 -1 -2 -2 -3 -3 -3 -4 -4 -5 -5 -6 -6 -6 -7 -7 -8
-2 -2 -1 -1 -1 -1 -1 -1 -0 -0 -0 -0 -0 0 0 0 -0 -0 -0 -0 -1 -1 -1 -1 -1 -1 -2 -2 -2 -3 -3 -3 -4 -4 -5 -5 -5 -6 -6 -7 -7 -8 -8 -8
-4 -3 -3 -3 -2 -3 -2 -2 -2 -1 -1 -2 -2 -1 -1 -1 -1 -1 -1 -2 -2 -2 -2 -2 -3 -3 -3 -3 -3 -4 -4 -4 -5 -5 -6 -6 -6 -7 -7 -8 -8 -8 -8 -9
-5 -5 -4 -4 -4 -4 -3 -3 -3 -3 -2 -2 -3 -3 -2 -2 -2 -2 -3 -3 -3 -3 -3 -3 -4 -4 -4 -4 -4 -5 -5 -5 -6 -6 -6 -7 -7 -7 -8 -8 -8 -9 -9 -9
-5 -5 -5 -5 -5 -4 -4 -4 -4 -4 -3 -3 -3 -3 -3 -3 -3 -3 -3 -4 -4 -4 -4 -4 -5 -5 -5 -5 -5 -6 -6 -6 -6 -7 -7 -8 -8 -8 -9 -9 -9 -9 -9 -9
Wind_Speed
13 11 11 16 18 21 23 21 17 18 19 16 10 9 8 9 9 8 8 9 10 9 9 10 10 11 11 11 12 12 12 12 12 11 11 11 11 12 12 12 12 12 11 10
14 14 12 13 18 20 23 22 23 19 20 13 10 8 8 8 8 9 8 9 9 10 10 11 11 12 11 11 11 12 12 11 11 11 11 12 12 12 12 11 11 11 11 11
10 12 11 15 18 19 19 20 20 24 22 12 12 11 10 9 8 8 8 9 9 10 10 10 11 11 12 11 11 11 11 11 12 12 12 12 12 12 12 12 11 10 10 10
6 8 13 12 11 16 19 19 19 19 14 13 12 10 9 8 8 8 8 8 9 8 9 8 9 10 10 10 11 11 11 11 11 12 12 12 12 12 11 10 11 10 10 10
5 8 9 8 10 14 17 20 19 18 16 13 10 8 9 9 9 8 7 7 7 8 8 9 9 11 11 11 11 11 12 12 12 12 12 12 13 12 9 9 9 9 9 10
8 8 10 9 9 8 9 16 15 16 16 12 11 12 12 7 7 6 6 5 6 7 8 9 9 11 12 11 12 12 12 11 11 12 12 12 12 10 8 8 8 8 8 8
12 9 9 8 6 7 10 10 7 13 13 11 13 13 7 8 6 6 6 7 7 8 8 8 9 11 11 10 11 10 9 9 10 10 10 10 9 8 8 8 8 8 7 7
11 9 10 6 7 9 6 4 3 5 8 10 10 7 7 8 8 8 7 7 8 8 7 7 9 11 10 9 9 9 10 10 10 9 8 8 9 8 8 9 8 7 6 5
8 9 4 5 6 6 3 3 2 2 3 4 6 7 7 8 8 8 8 8 7 8 8 7 7 9 10 9 10 11 10 10 9 9 8 8 8 8 8 7 7 6 6 6
7 9 8 6 5 4 3 2 2 1 1 3 5 6 7 8 8 8 8 8 8 9 9 7 7 8 9 9 10 11 10 9 9 8 7 7 6 7 7 7 7 6 6 6
10 7 7 8 6 6 4 2 1 1 0 3 5 6 7 7 8 8 8 7 8 9 9 9 8 9 9 10 10 10 9 8 8 7 7 6 5 5 6 6 8 8 7 7
11 8 7 8 8 7 5 4 3 2 1 1 4 6 6 7 7 8 9 8 8 9 10 9 9 9 9 9 10 10 9 8 6 6 5 5 5 3 3 4 6 6 6 6
10 9 8 7 7 7 6 6 5 5 5 3 3 5 7 7 7 9 10 10 10 10 10 10 10 9 8 8 9 9 8 7 6 6 6 5 5 5 3 1 2 3 5 5
10 9 8 6 6 6 5 5 3 3 3 4 4 5 7 8 8 9 9 9 10 10 10 10 10 9 8 8 9 8 8 7 7 5 5 5 5 4 4 4 3 2 4 6
9 8 7 5 4 3 3 3 3 3 4 4 5 6 8 9 9 9 9 10 11 11 10 10 10 8 8 8 9 8 7 6 5 5 5 4 4 4 3 3 3 2 2 3
7 6 6 6 6 6 5 5 5 6 5 5 6 6 7 8 9 9 9 10 11 11 10 10 9 8 8 9 9 7 6 7 6 5 5 4 4 3 3 3 3 3 3 3
8 8 7 7 7 7 7 6 7 7 6 6 7 8 10 11 11 10 9 8 9 9 9 9 9 8 8 8 8 6 6 6 6 5 4 4 4 3 3 3 4 4 4 5
8 8 8 8 7 7 6 5 5 7 7 7 9 10 11 11 11 10 10 10 11 10 8 8 9 9 8 7 6 6 5 5 4 4 3 3 3 3 3 3 4 5 4 5
5 5 5 5 6 6 6 6 6 6 7 9 11 10 9 10 10 11 10 10 11 9 6 7 11 9 7 7 7 5 5 4 3 3 2 3 2 2 3 4 4 5 5 5
2 2 4 4 5 6 7 7 7 7 8 10 11 12 11 10 10 10 10 8 5 6 7 8 8 7 6 6 6 4 4 4 3 2 2 2 3 3 3 4 4 5 5 5
4 5 7 8 8 8 8 8 10 10 9 10 12 12 12 10 9 9 10 8 5 7 8 9 6 5 5 4 4 3 3 3 3 2 2 2 3 3 4 4 5 5 5 6
6 8 9 9 10 10 9 9 10 12 12 12 12 12 12 11 10 9 8 6 6 8 6 5 5 5 4 4 3 2 2 2 2 2 2 2 3 4 4 5 5 6 6 6
8 9 10 10 11 12 12 11 12 12 12 12 11 11 10 9 7 8 7 5 5 7 5 4 5 5 4 3 2 2 1 1 1 2 2 3 3 4 5 6 6 6 6 6
10 11 11 11 12 14 14 13 12 12 12 12 11 10 9 9 8 7 6 8 8 7 5 5 5 4 3 2 1 1 0 1 1 2 2 3 3 4 5 6 6 6 7 8
11 12 12 12 12 11 12 12 13 13 13 11 11 11 8 7 7 6 6 6 8 7 5 5 5 4 3 2 1 1 1 1 3 3 3 3 4 5 6 6 7 7 7 8
11 10 10 11 10 9 8 9 9 9 9 9 9 8 7 7 7 7 6 6 7 7 5 3 3 3 2 2 1 1 2 3 4 3 4 5 5 6 7 7 8 8 8 8
11 10 10 10 10 9 9 9 9 9 8 8 8 7 7 7 6 6 6 5 5 4 4 3 3 2 2 2 2 2 3 3 4 4 5 5 6 6 7 8 8 8 8 9
Wind_Direction
244 240 208 212 216 219 222 223 225 232 235 237 228 217 206 195 190 188 180 181 186 184 185 181 179 180 181 182 178 173 172 175 176 171 168 166 166 165 162 163 167 166 164 166
247 245 244 236 223 221 226 228 233 241 244 238 242 231 224 215 201 199 197 189 187 183 184 184 183 182 180 179 174 170 173 175 170 168 167 167 165 162 160 162 163 163 168 170
240 242 246 240 227 223 227 229 229 236 241 239 247 245 234 223 217 208 202 190 184 185 188 187 185 179 178 173 165 167 171 170 169 167 167 166 162 161 164 166 164 167 172 173
235 223 228 235 223 225 230 233 229 236 239 230 235 240 234 223 222 224 204 187 181 179 182 179 172 168 163 160 162 165 168 169 168 166 165 163 164 167 167 167 170 174 177 178
221 225 246 246 220 214 222 236 229 234 236 231 234 252 250 229 217 210 196 180 175 172 170 164 162 160 156 159 161 165 171 172 169 166 166 167 171 171 168 168 174 176 176 177
212 215 224 232 207 202 210 245 229 228 233 224 207 230 240 208 198 188 169 158 156 152 147 152 156 151 155 161 165 174 174 169 164 165 167 171 172 168 165 168 173 172 178 182
211 220 242 247 209 164 196 236 227 223 228 217 214 224 205 168 172 162 152 145 137 135 140 149 148 148 156 161 171 167 153 150 155 160 163 164 163 162 163 164 165 171 177 183
206 212 229 214 179 188 222 258 245 229 223 216 216 203 166 156 146 140 137 131 131 130 132 135 142 147 152 159 151 139 140 146 150 152 154 156 159 162 163 163 166 172 176 182
209 222 244 195 209 221 218 242 257 260 264 204 189 181 164 154 147 146 142 137 130 130 128 128 136 143 147 145 135 135 138 142 144 144 148 154 159 162 162 163 167 173 176 188
231 239 250 247 244 242 255 260 270 263 244 183 171 163 158 154 152 149 144 140 136 133 132 130 128 127 133 132 132 133 138 139 141 145 149 152 157 161 165 171 173 177 184 192
244 243 230 229 234 245 266 294 328 353 250 182 159 156 158 156 155 151 145 142 142 142 139 135 126 121 124 129 131 133 134 136 139 145 150 152 154 164 170 182 183 184 191 190
243 233 233 242 237 240 235 243 232 213 208 190 167 162 154 152 150 145 142 139 137 136 134 132 127 124 125 128 132 135 137 140 144 146 146 146 143 126 123 161 178 190 199 205
258 261 252 243 233 232 229 228 225 214 198 191 167 147 144 142 140 138 139 142 143 140 136 131 127 126 128 130 131 135 140 143 142 144 147 149 151 153 152 124 166 196 210 224
264 266 257 242 238 229 219 215 215 207 185 163 147 135 134 130 131 139 144 142 135 131 130 129 127 128 129 126 125 126 129 136 140 143 145 150 156 160 165 171 190 226 234 236
257 253 244 236 217 209 194 174 173 177 155 139 133 138 142 142 142 140 133 129 127 127 129 129 129 128 125 124 125 128 130 135 133 133 137 143 146 152 164 180 199 222 238 246
249 245 227 220 210 197 185 183 186 184 166 153 143 143 140 132 127 124 126 132 136 139 138 134 131 128 124 123 124 124 127 130 132 136 140 145 151 163 178 191 206 219 229 237
231 232 226 216 209 200 199 200 192 181 165 155 149 138 128 124 122 122 121 119 120 121 124 129 129 123 121 123 125 129 129 135 134 135 148 159 168 182 192 201 216 231 239 248
233 228 222 210 197 190 186 179 165 156 153 148 140 136 136 138 138 133 126 118 111 105 106 117 121 120 119 120 122 127 131 137 145 153 159 169 184 191 201 216 228 240 253 263
235 222 207 194 183 171 162 154 146 137 136 140 138 135 130 128 127 126 123 121 122 121 120 121 122 119 119 121 121 125 132 137 143 153 165 197 209 211 221 230 240 247 254 257
201 162 142 135 133 137 135 133 129 124 125 126 122 119 117 117 119 117 111 104 106 123 128 126 120 117 118 121 116 127 136 144 154 170 186 200 214 227 234 242 247 251 254 256
116 109 109 110 105 103 111 118 120 116 111 113 118 119 117 112 111 113 112 105 95 106 114 116 113 116 116 121 115 127 137 151 170 189 205 220 233 244 249 252 256 262 263 264
94 98 99 102 103 98 93 98 104 106 105 104 105 109 110 107 102 92 86 105 115 111 106 106 109 114 117 110 118 132 147 163 186 203 218 232 241 250 257 260 263 268 268 265
85 93 96 99 102 99 91 90 94 99 101 102 105 107 107 104 102 107 101 97 103 103 99 104 116 116 105 96 115 131 149 178 214 231 239 244 250 256 262 267 268 268 268 268
82 86 89 92 95 95 92 86 85 87 87 85 83 86 94 95 81 75 95 103 98 93 91 101 99 92 72 81 100 112 146 224 250 255 255 259 262 265 267 270 271 270 271 272
80 83 85 87 88 90 92 93 90 86 83 81 75 69 67 74 90 92 86 85 86 82 81 77 69 54 51 59 57 39 330 278 272 274 265 270 271 273 273 273 273 274 275 274
76 78 77 77 82 88 91 91 89 87 88 86 78 72 73 74 78 79 78 74 72 68 65 58 46 38 39 29 9 333 306 303 304 297 284 281 279 277 277 277 276 277 276 275
72 74 75 74 70 71 76 81 84 82 81 87 85 76 73 72 72 69 67 65 60 56 50 41 33 26 14 356 336 320 310 302 296 291 288 284 281 280 279 278 278 278 277 276
Height
1376 1373 1375 1380 1382 1384 1386 1387 1392 1388 1387 1384 1383 1383 1383 1385 1388 1390 1393 1395 1396 1398 1399 1401 1403 1405 1408 1411 1415 1419 1423 1427 1432 1437 1442 1446 1451 1455 1459 1463 1467 1471 1474 1477
1377 1371 1370 1372 1374 1376 1378 1378 1379 1380 1378 1374 1375 1377 1379 1381 1383 1385 1388 1390 1392 1394 1395 1397 1399 1401 1404 1407 1411 1415 1419 1423 1427 1432 1437 1441 1445 1450 1454 1457 1461 1465 1468 1471
1379 1372 1372 1374 1367 1368 1370 1369 1371 1372 1368 1371 1373 1373 1374 1376 1378 1380 1382 1384 1386 1388 1390 1392 1394 1396 1399 1403 1407 1411 1415 1419 1423 1427 1431 1436 1440 1444 1448 1452 1456 1459 1463 1466
1379 1377 1380 1362 1353 1356 1359 1359 1360 1360 1361 1364 1365 1367 1369 1370 1373 1375 1377 1379 1381 1383 1386 1388 1390 1393 1396 1400 1403 1406 1410 1414 1418 1422 1426 1431 1435 1439 1443 1447 1450 1454 1457 1460
1380 1377 1368 1353 1348 1349 1353 1352 1351 1352 1353 1357 1360 1363 1362 1364 1367 1369 1372 1374 1376 1379 1381 1384 1386 1389 1392 1395 1398 1402 1405 1409 1413 1417 1421 1425 1429 1433 1437 1442 1445 1448 1452 1455
1376 1373 1365 1346 1339 1340 1348 1350 1342 1344 1346 1350 1355 1361 1355 1358 1361 1364 1366 1369 1372 1374 1377 1379 1382 1385 1388 1391 1394 1397 1400 1404 1408 1412 1416 1420 1424 1429 1433 1437 1440 1444 1447 1449
1367 1365 1353 1338 1335 1338 1352 1344 1335 1336 1338 1342 1345 1346 1349 1354 1356 1359 1362 1364 1367 1370 1372 1375 1378 1381 1384 1387 1389 1393 1397 1401 1405 1409 1413 1417 1421 1425 1428 1432 1435 1439 1441 1444
1358 1358 1351 1332 1333 1337 1336 1332 1332 1331 1332 1334 1337 1341 1344 1348 1351 1354 1357 1360 1363 1366 1368 1371 1374 1377 1380 1383 1387 1391 1395 1398 1402 1406 1410 1413 1417 1421 1424 1427 1430 1433 1436 1438
1344 1340 1329 1328 1328 1329 1330 1331 1330 1330 1330 1331 1333 1336 1340 1343 1347 1350 1354 1356 1359 1362 1365 1368 1371 1374 1377 1381 1385 1388 1392 1396 1399 1403 1406 1410 1413 1416 1419 1422 1425 1427 1430 1432
1336 1330 1327 1326 1325 1327 1328 1329 1329 1329 1329 1330 1330 1333 1336 1340 1343 1346 1350 1353 1356 1359 1362 1366 1369 1372 1375 1379 1382 1386 1389 1393 1396 1400 1403 1406 1409 1412 1415 1417 1420 1422 1424 1426
1329 1324 1323 1322 1324 1325 1326 1327 1327 1328 1328 1328 1329 1331 1334 1337 1340 1343 1347 1350 1354 1357 1360 1363 1367 1370 1373 1376 1380 1383 1387 1390 1393 1397 1400 1403 1406 1408 1411 1413 1416 1418 1419 1421
1323 1320 1321 1320 1320 1323 1324 1324 1325 1326 1326 1327 1328 1329 1332 1334 1337 1340 1344 1347 1351 1354 1358 1361 1365 1368 1371 1375 1378 1381 1384 1388 1391 1394 1397 1399 1402 1405 1408 1410 1412 1414 1416 1417
1317 1316 1316 1316 1317 1319 1320 1321 1322 1323 1324 1325 1327 1328 1330 1333 1336 1339 1342 1345 1349 1352 1356 1359 1363 1367 1370 1373 1377 1380 1382 1385 1388 1391 1394 1396 1398 1400 1403 1406 1408 1410 1411 1412
1313 1313 1311 1311 1313 1314 1316 1317 1319 1320 1322 1324 1325 1327 1329 1332 1334 1337 1340 1344 1347 1351 1355 1358 1362 1365 1369 1372 1375 1378 1381 1384 1386 1389 1391 1393 1395 1397 1399 1400 1402 1403 1405 1406
1306 1307 1307 1307 1309 1310 1312 1314 1315 1317 1319 1321 1323 1325 1327 1330 1332 1336 1339 1343 1346 1350 1353 1357 1360 1364 1368 1371 1374 1376 1379 1381 1384 1386 1389 1391 1392 1394 1396 1397 1397 1398 1399 1400
1301 1302 1302 1303 1304 1305 1307 1310 1311 1313 1316 1318 1320 1323 1325 1328 1331 1334 1338 1341 1344 1348 1351 1355 1359 1362 1366 1369 1372 1375 1377 1380 1382 1384 1385 1387 1389 1390 1391 1392 1392 1393 1393 1393
1296 1296 1297 1298 1299 1301 1303 1305 1308 1310 1312 1315 1317 1321 1323 1326 1329 1333 1336 1340 1344 1347 1351 1354 1358 1361 1364 1367 1370 1372 1375 1377 1379 1381 1382 1383 1385 1386 1386 1387 1387 1387 1387 1387
1289 1290 1291 1293 1295 1297 1300 1302 1305 1307 1309 1312 1315 1318 1321 1324 1327 1330 1334 1338 1342 1346 1350 1354 1357 1360 1363 1366 1368 1370 1372 1374 1376 1377 1379 1380 1380 1381 1382 1382 1381 1381 1381 1381
1283 1285 1287 1289 1291 1294 1296 1299 1301 1304 1306 1310 1313 1316 1319 1323 1326 1330 1333 1337 1340 1344 1348 1352 1355 1358 1361 1364 1366 1368 1370 1371 1373 1374 1375 1375 1376 1376 1376 1376 1376 1375 1374 1373
1279 1281 1282 1285 1288 1290 1293 1296 1298 1301 1304 1307 1311 1314 1318 1322 1326 1329 1333 1337 1340 1344 1347 1351 1354 1357 1359 1362 1363 1365 1367 1368 1369 1370 1370 1370 1371 1371 1371 1370 1370 1369 1368 1367
1276 1277 1279 1282 1285 1288 1291 1294 1296 1299 1303 1307 1310 1313 1317 1322 1326 1329 1333 1336 1341 1344 1347 1350 1353 1355 1357 1359 1361 1362 1363 1364 1365 1365 1365 1365 1365 1365 1365 1364 1363 1362 1361 1359
1274 1276 1278 1281 1283 1287 1290 1293 1296 1300 1303 1307 1310 1314 1318 1322 1326 1330 1333 1337 1340 1344 1346 1349 1351 1353 1355 1356 1357 1358 1359 1360 1360 1361 1360 1360 1360 1359 1358 1357 1356 1355 1353 1352
1276 1277 1279 1282 1284 1287 1291 1294 1298 1301 1305 1308 1312 1316 1320 1323 1327 1330 1333 1337 1340 1343 1345 1348 1349 1351 1352 1353 1354 1355 1355 1356 1356 1356 1355 1355 1354 1353 1352 1350 1349 1348 1346 1344
1278 1280 1282 1285 1287 1289 1292 1297 1300 1304 1308 1311 1315 1319 1322 1325 1328 1332 1334 1337 1340 1342 1344 1346 1347 1348 1349 1350 1351 1351 1351 1351 1351 1350 1350 1349 1348 1346 1345 1344 1342 1340 1338 1336
1282 1284 1286 1288 1290 1293 1297 1300 1304 1307 1311 1314 1318 1322 1325 1327 1330 1332 1335 1337 1339 1341 1342 1344 1345 1346 1346 1347 1347 1347 1347 1347 1346 1345 1344 1343 1341 1340 1338 1336 1334 1332 1330 1328
1288 1289 1291 1293 1296 1299 1302 1305 1307 1312 1315 1318 1321 1325 1327 1330 1331 1333 1335 1337 1339 1340 1341 1342 1343 1343 1343 1344 1343 1343 1342 1342 1341 1339 1338 1336 1334 1333 1331 1329 1327 1324 1322 1320
1294 1295 1296 1299 1302 1305 1307 1310 1313 1316 1319 1322 1324 1327 1329 1331 1332 1334 1335 1336 1338 1339 1339 1340 1340 1340 1340 1340 1339 1338 1337 1336 1335 1333 1331 1330 1328 1325 1323 1321 1319 1316 1314 1312